Observer details:
046 Klet.  Observers M. Tichy, J. Ticha, Z. Moravec.  Measurers M. Tichy,
    J. Ticha.  0.57-m f/5.2 reflector + CCD.
104 San Marcello Pistoiese.  Observers A. Boattini, L. Tesi.  0.40-m f/5.0
    reflector + CCD.
108 Montelupo.  Observers M. Tombelli, G. Forti.  0.30-m f/5.7 Schmidt-
    Cassegrain + CCD.
122 Pises.  Observers C. Cavadore, M. Deldem, B. Gaillard,  A. Maury. 0.40-m
    reflector + CCD.  Long. = 3.5035, rho cos phi' = 0.72017,
    rho sin phi' = +0.69176.
353 Nishi Kobe.  Observer K. Ito.  0.25-m f/6.3 Schmidt-Cassegrain + CCD.
360 Kuma Kogen.  Observer A. Nakamura.  0.60-m f/6.0 Ritchey-Chretien + CCD.
367 Yatsuka.  Observer H. Abe.  0.26-m f/6.0 reflector + CCD.
388 Tokyo-Mitaka.  Observers N. Yamamoto, D. Kinoshita, T. Saito, A. Obara.
    Measurer I. Sato.  0.50-m reflector + CCD.
422 Loomberah.  Observer G. J. Garradd.  0.25-m f/4.1 reflector + CCD.
540 Linz.  Observers E. Kolmhofer, H. Raab.  0.3-m f/5.2 Schmidt-Cassegrain
    + CCD.
557 Ondrejov.  Observer P. Pravec.  0.65-m f/3.6 reflector + CCD.
566 Haleakala-NEAT/GEODSS.  Observers E. F. Helin, S. Pravdo, K. J. Lawrence
    for the NEAT team.  1.0-m f/2.2 GEODSS telescope + CCD.
587 Sormano.  Observers P. Sicoli, V. Giuliani, P. Chiavenna.  0.5-m reflector
    + CCD.
608 Haleakala-AMOS.  Observers A. Alday, K. Moore, M. Tranilla, T. Goggia,
    A. Sylva.  Measurers G. Fricke, K. Imada, J. Africano, P. Sydney,
    D. Nishimoto, D. O'Connell, P. Kervin, B. Kraszewski, V. Soo Hoo.  1.2-m
    reflector + CCD.
673 Table Mountain Observatory, Wrightwood.  Observer D. L. Rabinowitz.
    0.6-m reflector + CCD.
817 Sudbury.  Observer D. di Cicco.  0.41-m Schmidt-Cassegrain + CCD.
867 Saji.  Observers M. Yamanishi, A. Miyamoto, M. Aimoto, T. Oribe.  1.03-m
    f/4.2 reflector + CCD.
900 Moriyama.  Observer Y. Ikari.  0.25-m f/6.3 reflector + CCD.

Orbital elements:
1996 PW
The following general orbit elements, like those on MPEC 1996-P03, are
representative of a range of solutions for this object.  The uncertainty
in the semimajor axis is still at least +/- 50 AU.
Epoch 1996 Nov. 13.0 TT = JDT 2450400.5                 Williams
M   0.01928              (2000.0)            P               Q
n   0.00019999     Peri.  181.98490     +0.83080338     +0.47578422
a 289.5994465      Node   144.47140     -0.50354839     +0.86357947
e   0.9912477      Incl.   29.79841     -0.23707543     -0.16691276
P  4900            H   14.0           G   0.15
From 116 observations 1996 Aug. 9-20, mean residual 0".47.

Ephemeris:
1996 PW                  a,e,i =289.60, 0.99, 30                 q = 2.5347
Date    TT    R. A. (2000) Decl.     Delta      r     Elong.  Phase     V
1996 08 15    22 20.39   -14 02.6    1.532    2.536   170.1     4.0    17.3
1996 08 25    22 19.23   -17 11.0    1.534    2.541   173.5     2.6    17.2
1996 09 04    22 18.03   -20 08.8    1.564    2.550   164.5     6.1    17.5
1996 09 14    22 17.46   -22 44.1    1.622    2.565   154.0     9.9    17.7
1996 09 24    22 18.16   -24 49.3    1.704    2.583   143.9    13.2    18.0
1996 10 04    22 20.57   -26 21.4    1.808    2.606   134.2    16.0    18.2
1996 10 14    22 24.87   -27 21.2    1.929    2.633   125.2    18.0    18.5
1996 10 24    22 31.08   -27 51.3    2.064    2.664   116.7    19.5    18.7
1996 11 03    22 39.05   -27 55.7    2.211    2.698   108.7    20.4    18.9
1996 11 13    22 48.56   -27 38.3    2.366    2.736   101.2    20.8    19.1
1996 11 23    22 59.38   -27 02.8    2.526    2.777    94.1    20.8    19.3
1996 12 03    23 11.23   -26 12.7    2.691    2.822    87.3    20.4    19.4
1996 12 13    23 23.91   -25 10.7    2.858    2.869    80.7    19.8    19.6
1996 12 23    23 37.22   -23 59.7    3.025    2.919    74.4    18.9    19.7
1997 01 02    23 50.99   -22 41.9    3.191    2.972    68.3    17.9    19.8
1997 01 12    00 05.08   -21 19.3    3.355    3.027    62.4    16.7    19.9
1997 01 22    00 19.41   -19 53.8    3.514    3.084    56.6    15.5    20.0
1997 02 01    00 33.86   -18 27.1    3.668    3.143    51.0    14.1    20.1
1997 02 11    00 48.38   -17 00.6    3.816    3.204    45.6    12.7    20.2
1997 02 21    01 02.91   -15 35.6    3.955    3.267    40.5    11.3    20.3
1997 03 03    01 17.38   -14 13.4    4.087    3.331    35.6    10.0    20.3
1997 03 13    01 31.77   -12 54.8    4.208    3.397    31.1     8.7    20.4

Gareth V. Williams           (C) Copyright 1996 MPC           M.P.E.C. 1996-Q03

Read MPEC 1996-Q02 Read MPEC 1996-Q04


MPEC number:

Enter an MPEC number in one of the following forms:

  • 1997-B01 (the full form)
  • J97B01 (the packed version of the full form)
  • B01 (the abbreviated form)

